This demonstration page uses our WeatherBlox Daily Observations layout. Learn more.

Left ArrowRight Arrow

39.12711, -84.51439

Hourly Observations for October 2, 2016

Temp ( °F °C ) Dew Point ( °F °C ) Humidity (%) Winds ( mph kmh ) Pressure ( in mb ) Visibility ( mi km ) Precip ( " mm )
12:25 am 00:25 Cloudy 61 16.1 60 15.6 97 97 SSW 8 13 30.00 1016 10 16 0.00 0.00
12:39 am 00:39 Cloudy 61 16.1 60 15.6 97 97 SSW 9 15 30.00 1016 10 16 0.00 0.00
12:53 am 00:53 Cloudy 61 16.1 60 15.6 97 97 S 7 11 30.03 1017 10 16 0.00 0.00
1:53 am 01:53 Cloudy 61 16.1 59 15 93 93 SSW 13 20 30.04 1017 10 16 0.00 0.00
2:34 am 02:34 Cloudy 61 16 59 15 94 94 SSW 5 7 30.00 1016 10 16 0.00 0.00
2:53 am 02:53 Cloudy 60 15.6 59 15 96 96 Calm 30.04 1017 10 16 0.00 0.00
3:53 am 03:53 Cloudy 61 16.1 60 15.6 97 97 S 5 7 30.03 1017 10 16 0.00 0.00
4:53 am 04:53 Cloudy 61 16.1 60 15.6 97 97 S 3 6 30.03 1017 9 14 0.00 0.00
5:53 am 05:53 Cloudy 61 16.1 61 16.1 100 100 S 5 7 30.04 1017 8 13 0.00 0.00
6:36 am 06:36 Cloudy 63 17 61 16 94 94 SW 5 7 30.03 1017 9 14 0.00 0.00
6:53 am 06:53 Cloudy 62 16.7 60 15.6 93 93 SSW 7 11 30.04 1017 9 14 0.00 0.00
7:36 am 07:36 Partly Cloudy 61 16 59 15 94 94 S 6 9 30.03 1017 10 16 0.00 0.00
7:53 am 07:53 Mostly Sunny 58 14.4 57 13.9 97 97 S 5 7 30.05 1018 7 11 0.00 0.00
8:42 am 08:42 Mostly Cloudy with Mist and Fog 61 16.1 61 16.1 100 100 S 5 7 30.03 1017 6 10 0.00 0.00
8:53 am 08:53 Cloudy with Mist and Fog 62 16.7 61 16.1 96 96 SSW 3 6 30.06 1018 6 10 0.00 0.00
9:53 am 09:53 Cloudy 64 17.8 60 15.6 87 87 WSW 5 7 30.06 1018 10 16 0.00 0.00
10:25 am 10:25 Mostly Cloudy 65 18.3 59 15 81 81 W 7 11 30.03 1017 10 16 0.00 0.00
10:53 am 10:53 Mostly Cloudy 67 19.4 61 16.1 81 81 W 7 11 30.07 1018 10 16 0.00 0.00
11:51 am 11:51 Mostly Cloudy 68 20 61 16 78 78 WSW 7 11 30.06 1018 10 16 0.00 0.00
11:53 am 11:53 Mostly Cloudy 68 20 60 15.6 76 76 WSW 8 13 30.07 1018 10 16 0.00 0.00
12:53 pm 12:53 Mostly Cloudy 68 20 58 14.4 70 70 WSW 8 13 30.07 1018 10 16 0.00 0.00
1:53 pm 13:53 Partly Cloudy 71 21.7 59 15 66 66 W 8 13 30.05 1018 10 16 0.00 0.00
2:53 pm 14:53 Cloudy 74 23.3 59 15 60 60 SW 10 17 30.04 1017 10 16 0.00 0.00
3:53 pm 15:53 Mostly Cloudy 71 21.7 58 14.4 63 63 VRB 3 6 30.03 1017 10 16 0.00 0.00
4:53 pm 16:53 Mostly Cloudy 72 22.2 59 15 64 64 NW 3 6 30.03 1017 10 16 0.00 0.03
5:53 pm 17:53 Mostly Cloudy 71 21.7 58 14.4 63 63 W 10 17 30.03 1017 10 16 0.00 0.00
6:53 pm 18:53 Mostly Sunny 68 20 57 13.9 68 68 NW 7 11 30.04 1017 10 16 0.00 0.00
7:53 pm 19:53 Clear 65 18.3 57 13.9 76 76 NW 7 11 30.06 1018 10 16 0.00 0.00
8:53 pm 20:53 Mostly Clear 59 15 58 14.4 96 96 Calm 30.07 1018 10 16 0.00 0.00
9:53 pm 21:53 Mostly Clear 58 14.4 58 14.4 100 100 Calm 30.08 1019 9 14 0.00 0.00
10:53 pm 22:53 Clear 55 12.8 55 12.8 100 100 ENE 3 6 30.09 1019 7 11 0.00 0.00
11:27 pm 23:27 Clear with Mist and Fog 54 12.2 54 12.2 100 100 Calm 30.09 1019 2 3 0.00 0.00
11:36 pm 23:36 Clear with Mist and Fog 55 13 55 13 100 100 Calm 30.09 1019 4 6 0.00 0.00
11:53 pm 23:53 Clear with Mist and Fog 54 12.2 54 12.2 100 100 Calm 30.09 1019 1 1 0.00 0.00

Powered by AerisWeather